Location: Irma
(52.9170°N, 111.2330°W)
Time: 11:19:50
(UTC-06:00)

Cosmos 1633 Rocket - Visible Passes

Search period start: 27 July 2016 00:00
Search period end: 06 August 2016 00:00
Orbit: 607 x 625 km, 82.5° (Epoch: 27 July)

Date Brightness Start Highest point End Pass type
(mag) Time Alt. Az. Time Alt. Az. Time Alt. Az.
27 Jul 6.0 04:48:21 10° NNE 04:51:40 21° ENE 04:54:59 10° ESE visible
30 Jul 6.2 04:00:31 10° NNE 04:02:41 13° ENE 04:04:49 10° E visible
31 Jul 5.9 04:16:07 10° NNE 04:19:24 20° ENE 04:22:40 10° ESE visible
01 Aug 5.2 04:32:05 10° N 04:36:01 30° ENE 04:39:56 10° SE visible
02 Aug 4.2 04:48:15 10° N 04:52:33 48° ENE 04:56:50 10° SSE visible
03 Aug 6.1 03:28:20 10° NNE 03:30:24 13° ENE 03:32:27 10° E visible
03 Aug 3.3 05:04:33 10° N 05:08:59 80° ENE 05:13:25 10° SSE visible
04 Aug 5.8 03:43:53 10° NNE 03:47:07 20° ENE 03:50:21 10° ESE visible
05 Aug 5.1 03:59:50 10° N 04:03:45 30° ENE 04:07:38 10° SE visible
